Location: Amsterdam
(30.7274°N, 84.4357°W)
Time: 02:56:44
(UTC+00:00)

Courier 1B Rocket - Pass Details

Date: 10 February 2026
Orbit: 920 x 1201 km, 28.2° (Epoch: 7 March)

Event Time Altitude Azimuth Distance (km) Brightness Sun altitude
Rises 06:20:51 0° 269° (W) 3,838 - -72.3°
Reaches altitude 10° 06:23:31 10° 267° (W) 2,924 - -72.1°
Maximum altitude 06:30:45 73° 184° (S) 1,183 - -71.3°
Drops below altitude 10° 06:38:26 10° 101° (E) 3,097 - -70.4°
Sets 06:41:19 0° 99° (E) 4,078 - -70.1°
